Weather History for KBOK - March, 2013

Change the Weather History Date:

Monday, March 25, 2013

  Actual Average Record
Temperature  
Mean Temperature 44 °F -  
Max Temperature 48 °F 58 °F 74 °F (1969)
Min Temperature 39 °F 41 °F 30 °F (1936)
Degree Days  
Heating Degree Days 22    
Moisture  
Dew Point 45 °F    
Average Humidity 100    
Maximum Humidity 100    
Minimum Humidity 100    
Precipitation  
Precipitation 0.00 in - - ()
Sea Level Pressure  
Sea Level Pressure 30.03 in    
Wind  
Wind Speed 4 mph (SSE)    
Max Wind Speed 9 mph    
Max Gust Speed -    
Visibility 10 miles    
Events Rain    
Averages and records for this station are not official NWS values.
T = Trace of Precipitation, MM = Missing Value Source: NWS Daily Summary

Daily Weather History Graph

Daily Weather History Graph

Search for Another Location

Airport or City:

Trip Planner

Search our weather history database for the weather conditions in past years. The results will help you decide how hot, cold, wet, or windy it might be!

Date:

Astronomy

Mar. 25, 2013 Rise Set
Actual Time 7:11 AM PDT 7:35 PM PDT
Civil Twilight 6:43 AM PDT 8:03 PM PDT
Nautical Twilight 6:10 AM PDT 8:36 PM PDT
Astronomical Twilight 5:36 AM PDT 9:10 PM PDT
Moon 6:12 PM PDT (3/25) 5:59 AM PDT (3/25)
Length of Visible Light 13h 20m
Length of Day
12h 24m
Waxing Gibbous, 97% of the Moon is Illuminated
Mar 25
Waxing Gibbous
Mar 27
Full
Apr 2
Last Quarter
Apr 10
New
Apr 18
First Quarter

Hourly Weather History & Observations

Time (PDT) Temp. Windchill Dew Point Humidity Pressure Visibility Wind Dir Wind Speed Gust Speed Precip Events Conditions
12:56 AM 41.9 °F - 41.9 °F 100% 30.06 in 10.0 mi Calm Calm - N/A   Clear
1:56 AM 41.0 °F 38.0 °F 41.0 °F 100% 30.05 in 10.0 mi ESE 4.6 mph - N/A   Clear
2:56 AM 41.9 °F 39.0 °F 41.9 °F 100% 30.04 in 10.0 mi Variable 4.6 mph - N/A   Clear
3:56 AM 41.0 °F 38.0 °F 41.0 °F 100% 30.03 in 10.0 mi Variable 4.6 mph - N/A   Clear
4:56 AM 39.9 °F 37.8 °F 39.9 °F 100% 30.03 in 10.0 mi ESE 3.5 mph - N/A   Clear
5:56 AM 39.9 °F - 39.9 °F 100% 30.02 in 10.0 mi Calm Calm - N/A   Clear
6:19 AM 39.2 °F 37.0 °F 39.2 °F 100% 30.01 in 10.0 mi Variable 3.5 mph - N/A   Mostly Cloudy
6:56 AM 41.0 °F 39.0 °F 41.0 °F 100% 30.02 in 10.0 mi Variable 3.5 mph - N/A   Mostly Cloudy
7:05 AM 41.0 °F 38.0 °F 41.0 °F 100% 30.01 in 10.0 mi SE 4.6 mph - N/A   Scattered Clouds
7:12 AM 41.0 °F 38.0 °F 41.0 °F 100% 30.01 in 10.0 mi Variable 4.6 mph - N/A   Mostly Cloudy
7:39 AM 42.8 °F 41.1 °F 42.8 °F 100% 30.00 in 10.0 mi Variable 3.5 mph - N/A   Overcast
7:56 AM 41.9 °F 40.0 °F 41.9 °F 100% 30.02 in 10.0 mi Variable 3.5 mph - N/A   Overcast
8:56 AM 43.0 °F 39.5 °F 43.0 °F 100% 30.02 in 10.0 mi Variable 5.8 mph - N/A   Overcast
9:56 AM 45.0 °F 41.8 °F 45.0 °F 100% 30.02 in 10.0 mi ESE 5.8 mph - N/A   Scattered Clouds
10:06 AM 44.6 °F 40.7 °F 44.6 °F 100% 30.02 in 10.0 mi SE 6.9 mph - N/A   Mostly Cloudy
10:56 AM 46.9 °F - 46.9 °F 100% 30.04 in 10.0 mi SSW 8.1 mph - N/A   Mostly Cloudy
11:56 AM 47.8 °F - 47.8 °F 100% 30.04 in 10.0 mi South 9.2 mph - N/A   Overcast
12:56 PM 46.9 °F - 46.9 °F 100% 30.04 in 10.0 mi South 8.1 mph - N/A   Overcast
1:11 PM 46.4 °F 42.9 °F 46.4 °F 100% 30.03 in 10.0 mi Variable 6.9 mph - N/A   Overcast
1:39 PM 46.4 °F 42.4 °F 46.4 °F 100% 30.02 in 10.0 mi SSE 8.1 mph - N/A   Overcast
1:56 PM 47.8 °F - 47.8 °F 100% 30.04 in 10.0 mi South 8.1 mph - N/A   Overcast
2:05 PM 46.4 °F 42.9 °F 46.4 °F 100% 30.02 in 10.0 mi South 6.9 mph - N/A   Overcast
2:56 PM 46.9 °F - 46.9 °F 100% 30.03 in 10.0 mi South 8.1 mph - N/A   Overcast
3:27 PM 48.2 °F - 48.2 °F 100% 30.02 in 10.0 mi Variable 6.9 mph - N/A   Overcast
3:56 PM 47.8 °F - 47.8 °F 100% 30.01 in 10.0 mi SSE 8.1 mph - N/A   Overcast
4:13 PM 46.4 °F 42.9 °F 46.4 °F 100% 30.01 in 10.0 mi South 6.9 mph - N/A   Overcast
4:56 PM 46.9 °F - 46.9 °F 100% 30.02 in 10.0 mi Variable 3.5 mph - N/A   Overcast
5:56 PM 46.9 °F - 46.9 °F 100% 30.02 in 10.0 mi Variable 5.8 mph - N/A   Overcast
6:09 PM 46.4 °F 42.9 °F 46.4 °F 100% 30.01 in 10.0 mi SSE 6.9 mph - N/A   Overcast
6:26 PM 46.4 °F 43.5 °F 46.4 °F 100% 30.01 in 10.0 mi SE 5.8 mph - 0.00 in Rain Light Rain
6:56 PM 46.9 °F - 46.9 °F 100% 30.03 in 10.0 mi SSE 5.8 mph - 0.00 in   Overcast
7:33 PM 46.4 °F 45.2 °F 46.4 °F 100% 30.01 in 10.0 mi Variable 3.5 mph - N/A   Overcast
7:56 PM 46.9 °F - 46.9 °F 100% 30.03 in 10.0 mi SE 3.5 mph - N/A   Overcast
8:56 PM 45.9 °F - 45.9 °F 100% 30.04 in 10.0 mi Calm Calm - N/A   Overcast
9:20 PM 46.4 °F - 46.4 °F 100% 30.03 in 10.0 mi Calm Calm - N/A   Overcast
9:56 PM 45.9 °F - 45.9 °F 100% 30.04 in 10.0 mi Calm Calm - N/A   Overcast
10:33 PM 46.4 °F - 46.4 °F 100% 30.03 in 10.0 mi Calm Calm - N/A   Overcast
10:56 PM 45.9 °F - 45.9 °F 100% 30.04 in 10.0 mi Calm Calm - N/A   Overcast
11:10 PM 46.4 °F - 46.4 °F 100% 30.04 in 10.0 mi Calm Calm - N/A   Overcast
11:41 PM 46.4 °F - 46.4 °F 100% 30.04 in 10.0 mi Calm Calm - N/A   Overcast
11:56 PM 45.9 °F - 45.9 °F 100% 30.05 in 10.0 mi Calm Calm - N/A   Overcast